This is the latest recevied weather packets stored in our database for station/object KA1AL. If no packets are shown the sender has not sent any weather packets the latest 10 day(s).
| Time | Temp. | Humidity | Pressure | Rain* | Wind** | Luminosity | Snow |
|---|---|---|---|---|---|---|---|
| 1778004519 | 23.33° C | 55% | 1002.9 hPa | 0 mm | - | 645 W/m² | - |
| 1778004216 | 23.33° C | 59% | 1002.8 hPa | 0 mm | - | 656 W/m² | - |
| 1778003912 | 23.33° C | 56% | 1003.1 hPa | 0 mm | - | 642 W/m² | - |
| 1778003608 | 23.33° C | 58% | 1003.2 hPa | 0 mm | - | 650 W/m² | - |
| 1778003305 | 22.78° C | 57% | 1003.3 hPa | 0 mm | - | 653 W/m² | - |
| 1778003003 | 22.78° C | 56% | 1003.5 hPa | 0 mm | - | 641 W/m² | - |
| 1778002699 | 22.78° C | 58% | 1003.2 hPa | 0 mm | - | 668 W/m² | - |
| 1778002395 | 22.78° C | 58% | 1003.6 hPa | 0 mm | - | 649 W/m² | - |
| 1778002093 | 22.78° C | 55% | 1003.5 hPa | 0 mm | - | 647 W/m² | - |
| 1778001790 | 22.78° C | 56% | 1003.7 hPa | 0 mm | - | 640 W/m² | - |
| 1778001484 | 22.22° C | 57% | 1003.8 hPa | 0 mm | - | 638 W/m² | - |
| 1778001181 | 22.22° C | 57% | 1004 hPa | 0 mm | - | 670 W/m² | - |
| 1778000878 | 22.22° C | 57% | 1004.4 hPa | 0 mm | - | 658 W/m² | - |
| 1778000575 | 21.67° C | 58% | 1004.1 hPa | 0 mm | - | 678 W/m² | - |
| 1777999966 | 21.67° C | 60% | 1004 hPa | 0 mm | - | 671 W/m² | - |
| 1777999662 | 21.67° C | 57% | 1004.1 hPa | 0 mm | - | 664 W/m² | - |
| 1777999359 | 21.67° C | 59% | 1004.5 hPa | 0 mm | - | 662 W/m² | - |
| 1777999057 | 21.11° C | 59% | 1004.5 hPa | 0 mm | - | 668 W/m² | - |
| 1777998756 | 21.67° C | 59% | 1004.5 hPa | 0 mm | - | 669 W/m² | - |
| 1777998452 | 21.11° C | 59% | 1004.6 hPa | 0 mm | - | 664 W/m² | - |
| 1777998149 | 20.56° C | 60% | 1004.6 hPa | 0 mm | - | 655 W/m² | - |
| 1777997846 | 20.56° C | 61% | 1004.8 hPa | 0 mm | - | 658 W/m² | - |
| 1777997544 | 20.56° C | 63% | 1004.8 hPa | 0 mm | - | 670 W/m² | - |
| 1777997241 | 20.56° C | 61% | 1004.8 hPa | 0 mm | - | 693 W/m² | - |
| 1777996939 | 19.44° C | 61% | 1005.1 hPa | 0 mm | - | 791 W/m² | - |
* Rain latest hour (hover to see other rain measurements)
** Current wind speed in m/s (hover to see current wind gust speed)